Location: Ward Pound Ridge Reservation
(41.2500°N, 73.6000°W)
Time: 02:37:56
(UTC-04:00)

Envisat - Pass Details

Date: 12 October 2017
Orbit: 764 x 766 km, 98.2° (Epoch: 21 October)

Event Time Altitude Azimuth Distance (km) Brightness Sun altitude
Exits shadow 21:33:57 27° 291° (WNW) 1,435 4.8 -36.9°
Drops below altitude 10° 21:37:09 10° 326° (NW) 2,309 6.1 -37.4°
Sets 21:39:44 0° 337° (NNW) 3,240 6.8 -37.9°
